Time,TemperatureF,DewpointF,PressureIn,WindDirection,WindDirectionDegrees,WindSpeedMPH,WindSpeedGustMPH,Humidity,HourlyPrecipIn,Conditions,Clouds,dailyrainin,SoftwareType,DateUTC
2013-08-14 00:02:00,55.0,54.0,30.21,North,0,0.0,-999.0,93,-99.99,,,-99.99,,2013-08-14 05:02:00,
2013-08-14 00:22:00,54.0,52.0,30.22,North,0,0.0,-999.0,93,-99.99,,,-99.99,,2013-08-14 05:22:00,
2013-08-14 00:42:00,54.0,52.0,30.22,North,0,0.0,-999.0,93,-99.99,,,-99.99,,2013-08-14 05:42:00,
2013-08-14 00:51:00,55.0,54.0,30.23,North,0,0.0,-999.0,93,-99.99,,,-99.99,,2013-08-14 05:51:00,
2013-08-14 01:01:00,55.0,54.0,30.23,North,0,0.0,-999.0,93,-99.99,,,-99.99,,2013-08-14 06:01:00,
2013-08-14 01:11:00,55.0,54.0,30.23,North,0,0.0,-999.0,93,-99.99,,,-99.99,,2013-08-14 06:11:00,
2013-08-14 01:21:00,55.0,54.0,30.23,North,0,0.0,-999.0,93,-99.99,,,-99.99,,2013-08-14 06:21:00,
2013-08-14 01:42:00,54.0,52.0,30.22,North,0,0.0,-999.0,93,-99.99,,,-99.99,,2013-08-14 06:42:00,
2013-08-14 02:21:00,57.0,52.0,30.23,North,0,0.0,-999.0,82,-99.99,,,-99.99,,2013-08-14 07:21:00,
2013-08-14 02:42:00,55.0,52.0,30.23,North,0,0.0,-999.0,87,-99.99,,,-99.99,,2013-08-14 07:42:00,
2013-08-14 02:52:00,55.0,52.0,30.23,North,0,0.0,-999.0,87,-99.99,,,-99.99,,2013-08-14 07:52:00,
2013-08-14 03:21:00,52.0,50.0,30.22,North,0,0.0,-999.0,93,-99.99,,,-99.99,,2013-08-14 08:21:00,
2013-08-14 03:42:00,52.0,50.0,30.22,North,0,0.0,-999.0,93,-99.99,,,-99.99,,2013-08-14 08:42:00,
2013-08-14 04:21:00,54.0,52.0,30.21,North,0,0.0,-999.0,93,-99.99,,,-99.99,,2013-08-14 09:21:00,
2013-08-14 04:43:00,54.0,52.0,30.21,North,0,0.0,-999.0,93,-99.99,,,-99.99,,2013-08-14 09:43:00,
2013-08-14 05:23:00,54.0,52.0,30.21,North,0,0.0,-999.0,93,-99.99,,,-99.99,,2013-08-14 10:23:00,
2013-08-14 05:42:00,54.0,50.0,30.21,North,0,0.0,-999.0,87,-99.99,,,-99.99,,2013-08-14 10:42:00,
2013-08-14 05:52:00,54.0,50.0,30.21,North,0,0.0,-999.0,87,-99.99,,,-99.99,,2013-08-14 10:52:00,
2013-08-14 06:02:00,54.0,50.0,30.21,North,0,0.0,-999.0,87,-99.99,,,-99.99,,2013-08-14 11:02:00,
2013-08-14 06:21:00,54.0,50.0,30.22,North,0,0.0,-999.0,87,-99.99,,,-99.99,,2013-08-14 11:21:00,
2013-08-14 06:42:00,52.0,50.0,30.22,North,0,0.0,-999.0,93,-99.99,,,-99.99,,2013-08-14 11:42:00,
2013-08-14 06:52:00,52.0,50.0,30.22,North,0,0.0,-999.0,93,-99.99,,,-99.99,,2013-08-14 11:52:00,
2013-08-14 07:01:00,52.0,50.0,30.22,North,0,0.0,-999.0,93,-99.99,,,-99.99,,2013-08-14 12:01:00,
2013-08-14 07:11:00,52.0,50.0,30.22,North,0,0.0,-999.0,93,-99.99,,,-99.99,,2013-08-14 12:11:00,
2013-08-14 07:21:00,52.0,50.0,30.22,North,0,0.0,-999.0,93,-99.99,,,-99.99,,2013-08-14 12:21:00,
2013-08-14 07:42:00,55.0,52.0,30.22,North,0,0.0,-999.0,87,-99.99,,,-99.99,,2013-08-14 12:42:00,
2013-08-14 07:52:00,55.0,54.0,30.21,North,0,0.0,-999.0,93,-99.99,,,-99.99,,2013-08-14 12:52:00,
2013-08-14 08:02:00,55.0,54.0,30.21,North,0,0.0,-999.0,93,-99.99,,,-99.99,,2013-08-14 13:02:00,
2013-08-14 08:22:00,57.0,54.0,30.21,North,0,0.0,-999.0,87,-99.99,,,-99.99,,2013-08-14 13:22:00,
2013-08-14 08:42:00,59.0,54.0,30.21,North,0,0.0,-999.0,82,-99.99,,,-99.99,,2013-08-14 13:42:00,
2013-08-14 09:22:00,63.0,55.0,30.22,SSE,160,5.0,-999.0,77,-99.99,,,-99.99,,2013-08-14 14:22:00,
2013-08-14 09:42:00,63.0,55.0,30.22,SE,130,6.0,-999.0,77,-99.99,,,-99.99,,2013-08-14 14:42:00,
2013-08-14 09:52:00,64.0,57.0,30.22,SE,140,5.0,-999.0,77,-99.99,,,-99.99,,2013-08-14 14:52:00,
2013-08-14 10:02:00,64.0,57.0,30.22,SE,140,5.0,-999.0,77,-99.99,,,-99.99,,2013-08-14 15:02:00,
2013-08-14 10:11:00,64.0,57.0,30.22,SE,140,5.0,-999.0,77,-99.99,,,-99.99,,2013-08-14 15:11:00,
2013-08-14 10:22:00,64.0,57.0,30.22,SE,140,5.0,-999.0,77,-99.99,,,-99.99,,2013-08-14 15:22:00,
2013-08-14 10:44:00,64.0,57.0,30.22,South,180,6.0,-999.0,77,-99.99,,,-99.99,,2013-08-14 15:44:00,
2013-08-14 11:13:00,64.0,57.0,30.22,SE,140,7.0,-999.0,77,-99.99,,,-99.99,,2013-08-14 16:13:00,
2013-08-14 11:28:00,64.0,57.0,30.22,SE,140,7.0,-999.0,77,-99.99,,,-99.99,,2013-08-14 16:28:00,
2013-08-14 11:43:00,64.0,57.0,30.22,SSE,150,5.0,-999.0,77,-99.99,,,-99.99,,2013-08-14 16:43:00,
2013-08-14 12:29:00,66.0,59.0,30.21,ESE,120,5.0,-999.0,77,-99.99,,,-99.99,,2013-08-14 17:29:00,
2013-08-14 12:44:00,66.0,61.0,30.21,North,0,0.0,-999.0,82,-99.99,,,-99.99,,2013-08-14 17:44:00,
2013-08-14 13:25:00,68.0,-99.9,30.21,North,0,0.0,-999.0,72,-99.99,,,-99.99,,2013-08-14 18:25:00,
2013-08-14 13:34:00,68.0,59.0,30.21,North,0,0.0,-999.0,72,-99.99,,,-99.99,,2013-08-14 18:34:00,
2013-08-14 14:03:00,68.0,61.0,30.20,North,0,0.0,-999.0,77,-99.99,,,-99.99,,2013-08-14 19:03:00,
2013-08-14 14:42:00,70.0,61.0,30.19,SSE,150,6.0,-999.0,73,-99.99,,,-99.99,,2013-08-14 19:42:00,
2013-08-14 15:12:00,70.0,63.0,30.19,South,170,5.0,-999.0,77,-99.99,,,-99.99,,2013-08-14 20:12:00,
2013-08-14 15:49:00,70.0,59.0,30.19,SSW,200,7.0,-999.0,68,-99.99,,,-99.99,,2013-08-14 20:49:00,
2013-08-14 16:24:00,68.0,61.0,30.18,SSW,210,6.0,-999.0,77,-99.99,,,-99.99,,2013-08-14 21:24:00,
2013-08-14 16:45:00,68.0,61.0,30.18,SW,220,7.0,-999.0,77,-99.99,,,-99.99,,2013-08-14 21:45:00,
2013-08-14 16:55:00,66.0,59.0,30.18,SSW,200,7.0,-999.0,77,-99.99,,,-99.99,,2013-08-14 21:55:00,
2013-08-14 17:04:00,66.0,59.0,30.18,SSW,200,7.0,-999.0,77,-99.99,,,-99.99,,2013-08-14 22:04:00,
2013-08-14 17:13:00,66.0,59.0,30.18,SSW,200,7.0,-999.0,77,-99.99,,,-99.99,,2013-08-14 22:13:00,
2013-08-14 17:23:00,66.0,59.0,30.18,SSW,200,7.0,-999.0,77,-99.99,,,-99.99,,2013-08-14 22:23:00,
2013-08-14 17:44:00,66.0,61.0,30.18,North,0,0.0,-999.0,82,-99.99,,,-99.99,,2013-08-14 22:44:00,
2013-08-14 17:55:00,66.0,61.0,30.17,North,0,0.0,-999.0,82,-99.99,,,-99.99,,2013-08-14 22:55:00,
2013-08-14 18:06:00,66.0,61.0,30.17,North,0,0.0,-999.0,82,-99.99,,,-99.99,,2013-08-14 23:06:00,
2013-08-14 18:25:00,68.0,61.0,30.17,North,0,0.0,-999.0,77,-99.99,,,-99.99,,2013-08-14 23:25:00,
2013-08-14 18:46:00,68.0,61.0,30.16,North,0,0.0,-999.0,77,-99.99,,,-99.99,,2013-08-14 23:46:00,
2013-08-14 18:56:00,66.0,61.0,30.16,North,0,0.0,-999.0,82,-99.99,,,-99.99,,2013-08-14 23:56:00,
2013-08-14 19:04:00,66.0,61.0,30.16,North,0,0.0,-999.0,82,-99.99,,,-99.99,,2013-08-15 00:04:00,
2013-08-14 19:23:00,68.0,61.0,30.16,North,0,0.0,-999.0,77,-99.99,,,-99.99,,2013-08-15 00:23:00,
2013-08-14 19:43:00,66.0,61.0,30.16,North,0,0.0,-999.0,82,-99.99,,,-99.99,,2013-08-15 00:43:00,
2013-08-14 20:22:00,64.0,61.0,30.15,North,0,0.0,-999.0,88,-99.99,,,-99.99,,2013-08-15 01:22:00,
2013-08-14 20:42:00,63.0,61.0,30.15,North,0,0.0,-999.0,93,-99.99,,,-99.99,,2013-08-15 01:42:00,
2013-08-14 21:21:00,61.0,57.0,30.14,North,0,0.0,-999.0,87,-99.99,,,-99.99,,2013-08-15 02:21:00,
2013-08-14 22:22:00,59.0,57.0,30.15,North,0,0.0,-999.0,93,-99.99,,,-99.99,,2013-08-15 03:22:00,
2013-08-14 22:43:00,59.0,57.0,30.15,North,0,0.0,-999.0,93,-99.99,,,-99.99,,2013-08-15 03:43:00,
2013-08-14 22:53:00,57.0,55.0,30.16,North,0,0.0,-999.0,93,-99.99,,,-99.99,,2013-08-15 03:53:00,
2013-08-14 23:03:00,57.0,55.0,30.16,North,0,0.0,-999.0,93,-99.99,,,-99.99,,2013-08-15 04:03:00,
2013-08-14 23:23:00,55.0,55.0,30.16,North,0,0.0,-999.0,100,-99.99,,,-99.99,,2013-08-15 04:23:00,
2013-08-14 23:43:00,55.0,55.0,30.15,North,0,0.0,-999.0,100,-99.99,,,-99.99,,2013-08-15 04:43:00,
2013-08-14 23:52:00,55.0,55.0,30.15,North,0,0.0,-999.0,100,-99.99,,,-99.99,,2013-08-15 04:52:00,